Regional Weather Roundup
Issued by NWS

Home | Current Version | Previous Version | Graphics & Text | Print | Product List | Glossary On
Versions: 1 2 3 4 5 6 7 8 9 10 11 12 13 14 15 16 17 18 19 20 21 22 23 24 25 26 27 28 29 30 31 32 33 34 35 36 37 38 39 40 41 42 43 44 45 46 47 48 49 50
000
ASUS43 KTOP 170059
RWRKS

WEATHER ROUNDUP FOR KANSAS
NATIONAL WEATHER SERVICE GOODLAND KS
800 PM CDT WED APR 16 2014

NOTE:  "FAIR" INDICATES FEW OR NO CLOUDS BELOW 12,000 FEET WITH NO
SIGNIFICANT WEATHER AND/OR OBSTRUCTIONS TO VISIBILITY.

KSZ001>006-013>018-027>032-041>047-170200-
NORTHWEST KANSAS

CITY           SKY/WX    TMP DP  RH WIND       PRES   REMARKS
GOODLAND       CLOUDY    49  32  52 NE14      30.02R
HAYS           CLOUDY    54  34  47 NE17      29.99R
HILL CITY      CLOUDY    54  31  41 N13       29.99R
RUSSELL        CLOUDY    54  34  46 N15       29.96R
$$

KSZ061>065-074>080-084>089-170200-
SOUTHWEST KANSAS

CITY           SKY/WX    TMP DP  RH WIND       PRES   REMARKS
DODGE CITY     CLOUDY    58  30  34 N17G24    29.93R
ELKHART          N/A     59  26  28 NE12        N/A
GARDEN CITY    CLOUDY    57  31  37 NE17      29.96R
GREAT BEND     MOCLDY    57  34  41 N16       29.95R
LIBERAL        MOCLDY    63  28  27 E9        29.93R
$$

KSZ066>073-081>083-090>101-170200-
SOUTHEAST KANSAS

CITY           SKY/WX    TMP DP  RH WIND       PRES   REMARKS
CHANUTE        CLEAR     58  34  40 S15       29.94R
COFFEYVILLE    CLEAR     60  32  34 S13       29.95R
HUTCHINSON     MOCLDY    64  34  32 NW6       29.89R
NEWTON         PTCLDY    63  34  34 NW7       29.91R
PARSONS        CLEAR     60  31  33 S8        29.96R
WICHITA INTL   MOCLDY    62  31  31 SW7       29.87R
WICHITA JABRA  CLEAR     65  29  25 S9        29.88R
WINFIELD       PTCLDY    61  32  33 S13       29.91R
$$

KSZ007>012-019>026-033>040-048>060-102>105-170200-
NORTHEAST KANSAS

CITY           SKY/WX    TMP DP  RH WIND       PRES   REMARKS
CONCORDIA      MOCLDY    49  34  56 N16G23    29.98R
EMPORIA        PTCLDY    62  31  31 S13       29.87R
LAWRENCE       MOCLDY    61  34  36 S18G26    29.87R
MANHATTAN      PTCLDY    56  36  47 N9G25     29.92R
OLATHE IND     PTCLDY    58  32  37 S14       29.91R
OLATHE EXE     PTCLDY    58  31  35 S13G22    29.90R
SALINA         MOCLDY    58  36  43 N24G33    29.94R
TOPEKA BILLARD CLOUDY    67  31  26 S9        29.85R
TOPEKA FORBES  CLOUDY    64  31  28 SW9       29.86R
$$



USA.gov is the U.S. government's official web portal to all federal, state and local government web resources and services.